Showing default

ZHUHAI-1 03B, 44536

Orbit data source: Space-Track

ZHUHAI-1 03B, 44536 is a payload satellite owned by Zhuhai Orbita (CN) in SSO that was launched on Thu, 19 Sep 2019 UTC via a CHANG ZHENG 11 launch vehicle from the Jiuquan Satellite Launch Center, China (JSC). Payloads include a variety of satellites, spacecraft, and rockets equipped with specific instruments for various scientific and technological missions. These include communications satellites like Starlink; space stations such as the ISS; scientific satellites like the Hubble; Earth observation satellites from companies like Planet Labs, Umbra, and HawkEye 360; GPS; miniature CubeSats for education and research; and military/defense satellites.

Loading next visibility...
ZHUHAI-1 03B details
Identifier
44536, 2019-060C
Orbit
SSO
Last TLE update9 hours ago
Origin
Flag of CNZhuhai Orbita (CN / PRC)
ManufacturerHarbin
MissionOperational Commercial Imaging
Bus & MotorOHS-1, Unknown motor
Mass69 kg wet, ~69 kg dry
Launch date (UTC)
2019-09-19 (5 years ago)
Launch vehicle
CHANG ZHENG 11
Launch site
Jiuquan Satellite Launch Center, China (JSC)
Object type
Payload
Rocket body
Debris
Shape & HBRBox, Unknown HBR
Radar Cross Section0.280 m², Medium (>0.1 m² and < 1m²)

Expand to show TLE details & history

TLE from 9 hours ago
0 ZHUHAI-1 03B
1 44536U 19060C   24361.24998419  .00035644  00000-0  12003-2 0  9990
2 44536  97.4983 133.4589 0013377 102.6073 257.6664 15.30592764293582
Epoch: 2024-12-26T05:59Z
Definitive object data (Epoch: 2024-12-26T05:59:58.634Z)
Latitude-0.00003°
Longitude-51.76748°
Altitude479.115 km
Speed7.625 km/s
True Right ascension08h 53m 50s
True Declination0° 00' 00"
Sunlit
Object was in full shadow at TLE epoch
Visualization TLE readout
Latitude-63.76019°
Longitude113.20761°
Altitude505.716 km
Speed7.606 km/s
Apparent Right ascension00h 02m 40s
Apparent Declination-61° 40' 47"
Sunlit
Object is in daylight
Visualization observer readout
Local Sidereal Time14:16:27
Azimuth148.169° SSE
Elevation-60.281°
Doppler factor1
Orbital elements
Apogee altitude480.16 km
Perigee altitude461.836 km
Semi-major axis6,849.135 km
Eccentricity0.0013377
Inclination97.4983°
RAAN133.4589°
Arg. of periapsis102.6073°
True anomaly257.5167°
Mean anomaly257.6664°
Eccentric anomaly257.59155°
Mean motion3.82904 °/min
BSTAR0.0012003
Orbital period94.02 mins
Loading maneuver chart data...
Loading historical data...
Loading historical data...
Loading historical data...
Loading historical data...
Loading historical data...
Loading historical data...
Loading historical data...

ZHUHAI-1 03B Visibility forecast

Observer location: undefined°, undefined

Span
Click to sort rows by Start time (UTC) header in descending order
Start Az.
Max El. time (UTC)
Max El. Az.
Max El.
End time (UTC)
End Az.
6 mins2024-12-26 22:14:32.627Z358.491° N2024-12-26 22:17:32.627Z287.646° WNW36.144°2024-12-26 22:20:32.627Z213.007° SW
4 mins2024-12-27 08:49:32.627Z135.697° SSE2024-12-27 08:51:32.627Z44.762° NE35.525°2024-12-27 08:53:32.627Z3.524° NNE
|